Regional Weather Roundup
Issued by NWS

Home | Current Version | Previous Version | Text Only | Print | Product List | Glossary On
Versions: 1 2 3 4 5 6 7 8 9 10 11 12 13 14 15 16 17 18 19 20 21 22 23 24 25 26 27
000
ASUS42 KTBW 290917
RWRFL
FLORIDA REGIONAL WEATHER ROUNDUP
NATIONAL WEATHER SERVICE TAMPA BAY RUSKIN FL
500 AM EDT SAT APR 29 2017

NOTE: "FAIR" INDICATES FEW OR NO CLOUDS BELOW 12,000 FEET WITH NO
SIGNIFICANT WEATHER AND/OR OBSTRUCTIONS TO VISIBILITY.

FLZ001>010-012>015-112-114-115-291000-
PANHANDLE FLORIDA

CITY           SKY/WX    TMP DP  RH WIND       PRES   REMARKS
PENSACOLA      CLOUDY    76  71  85 SE12      30.00S
PENSACOLA NAS  CLOUDY    75  72  90 SE10      30.00S
MILTON NAS     LGT RAIN  73  72  96 SE7       30.02
CRESTVIEW      CLOUDY    72  70  93 VRB5      30.04R FOG
DUKE FIELD     CLOUDY    73  71  95 S6        30.02R
VALPARAISO     CLOUDY    73  72  94 SE12      30.02S
MARY ESTHER    CLOUDY    74  72  93 SE10      30.01S
TRI COUNTY     CLOUDY    72  72 100 SE6       30.05S FOG
PANAMA CITY    CLOUDY    73  72  96 E5        30.03S
TYNDALL AFB    MOCLDY    74  72  96 SE8       30.04S
APALACHICOLA   CLOUDY    77  76  96 SE8       30.04F

STATION/POSITION SKY/WX   TEMP    WIND        PRES    WAVE   SWELL
                          AIR SEA DIR/SP/G            HT/PER HT/PER
                          (F)     (DEG/KT/KT) (MB)    (FT/S) (FT/S)
30.1N   87.6W              75 75  130/ 14/ 16 1014.8F   4/ 6
29.2N   88.2W              76 76  120/ 14/ 16 1014.0F   5/ 7
28.8N   86.0W              75 75  110/ 12/ 14 1015.7F   3/ 7   2/ 7
PANAMA CITY BEAC           74 77   90/  7/  9 1017.2F
TOWER C                    74     130/ 14/ 15 1017.7F
28.5N   84.5W              75 74  130/ 12/ 12 1017.0S   3/ 8   2/ 8

$$
FLZ011-016>038-118-127-128-134-139-239-291000-
NORTH FLORIDA

CITY           SKY/WX    TMP DP  RH WIND       PRES   REMARKS
MARIANNA       CLOUDY    73  71  93 S5        30.05S
TALLAHASSEE    CLEAR     70  68  93 CALM      30.06F
PERRY          PTCLDY    71  69  95 SE3       30.08S FOG
CROSS CITY     MOCLDY    73  68  83 SE6       30.09S
LAKE CITY      FAIR      70  70 100 SE6       30.11S
GAINESVILLE    CLOUDY    74  70  87 SE7       30.11S
WILLISTON      PTCLDY    73  70  88 CALM      30.11S
PALATKA        CLOUDY    73  73 100 SE3       30.12S
MAYPORT NAS    CLOUDY    73  73 100 S13       30.12S
JACKSONVILLE   MOCLDY    74  71  91 S7        30.11S
JAX NAS        MOCLDY    76  72  87 SE12      30.13R
FERNANDINA BEA CLOUDY    79  73  83 S8G17     30.11S
ST AUGUSTINE   CLOUDY    76  73  91 S12       30.13S

STATION/POSITION SKY/WX   TEMP    WIND        PRES    WAVE   SWELL
                          AIR SEA DIR/SP/G            HT/PER HT/PER
                          (F)     (DEG/KT/KT) (MB)    (FT/S) (FT/S)
SHELL POINT      NOT AVBL
KEATON BEACH               72      90/  5/  6 1018.1F
CEDAR KEY                  78     140/ 14/ 15 1019.3R
FERNANDINA                 76 77  150/  8/ 16 1020.6F
30.7N   81.3W                 74                N/A     3/ 5
MAYPORT                    76 77  160/  8/ 14 1020.3S
31.4N   80.9W              74 73  170/  8/ 10 1020.1F   3/ 5   2/ 5
ST AUGUSTINE               75 77  150/ 15/ 17 1020.7S

$$
FLZ040-043>046-052-053-057-058-063-144-291000-
INTERIOR CENTRAL FLORIDA

CITY           SKY/WX    TMP DP  RH WIND       PRES   REMARKS
OCALA          PTCLDY    72  66  83 CALM      30.11S
THE VILLAGES     N/A     77  73  88 MISG      30.01S
LEESBURG       CLOUDY    76  74  93 SE7       30.12R
SANFORD        CLEAR     73  71  93 SE7       30.11S
ORLANDO EXEC   CLEAR     74  72  93 SE7       30.12R
ORLANDO INTL   PTCLDY    73  73 100 SE7       30.12R
KISSIMMEE      CLEAR     74  73  97 SE8       30.12S
WINTER HAVEN   CLEAR     73  70  90 E8        30.12S
LAKELAND       PTCLDY    72  72 100 SE7       30.11S
BARTOW         FAIR      72 N/A N/A E8        30.11S
OKEECHOBEE     CLEAR     70  70 100 E5        30.12R

$$
FLZ041-047-054-059-064-141-147-291000-
EAST CENTRAL FLORIDA

CITY           SKY/WX    TMP DP  RH WIND       PRES   REMARKS
DAYTONA BEACH  PTCLDY    74  73  97 SE3       30.11F
DELAND         CLEAR     73  72  94 SE8       30.11S
JFK SPACE CTR  CLEAR     76  74  93 SE7       30.11S
CAPE CANAVERAL CLEAR     75  72  89 SE13      30.11S
PATRICK AFB    CLEAR     77  74  92 SE16      30.11S
MELBOURNE      PTCLDY    79  73  82 SE10      30.11S
VERO BEACH     PTCLDY    77  72  84 SE13      30.12R
FT PIERCE      CLEAR     78  72  81 SE13      30.11S

STATION/POSITION SKY/WX   TEMP    WIND        PRES    WAVE   SWELL
                          AIR SEA DIR/SP/G            HT/PER HT/PER
                          (F)     (DEG/KT/KT) (MB)    (FT/S) (FT/S)
28.5N   80.2W              77 76  130/ 14/ 16 1021.2S   4/ 5   2/ 8
28.9N   78.5W              77 79  140/ 14/ 17 1021.0R   4/ 7   2/11
TRIDENT PIER               76 80  120/  6/ 12 1021.4S
28.4N   80.5W                 78                N/A     3/ 4
27.5N   80.2W                 77                N/A     4/ 5   2/11

$$
FLZ050-056-061-142-242-148-248-149-249-151-251-155-255-
160-260-291000-
WEST CENTRAL FLORIDA

CITY           SKY/WX    TMP DP  RH WIND       PRES   REMARKS
CRYSTAL RIVER  FAIR      70  68  94 CALM      30.10S
INVERNESS      FAIR      70  70 100 CALM      30.11S
BROOKSVILLE    PTCLDY    73  69  87 SE5       30.10S
CLEARWATER AIR CLOUDY    75  72  88 SE8       30.08S
ST PETE CLEARW MOCLDY    76  72  87 SE16G23   30.08S
TAMPA INTL     CLEAR     76  71  85 E9        30.08F
TAMPA EXEC     PTCLDY    75  70  83 SE5       30.10S
PLANT CITY     PTCLDY    73  72  94 SE5       30.12S
MACDILL AFB    CLEAR     74  74 100 E10       30.07F
PETER O KNIGHT PTCLDY    77  73  88 SE10      30.09S
ST PETERSBURG  CLOUDY    74  73  97 SE15      30.06F
SARASOTA       MOCLDY    73  70  90 E10       30.06S
VENICE         MOCLDY    77  73  88 SE9       30.07F

STATION/POSITION SKY/WX   TEMP    WIND        PRES    WAVE   SWELL
                          AIR SEA DIR/SP/G            HT/PER HT/PER
                          (F)     (DEG/KT/KT) (MB)    (FT/S) (FT/S)
27.3N   84.2W                 75                N/A     4/ 7
CLEARWATER BEACH           77 79  120/  6/ 13 1018.6F
MIDDLE TAMPA BAY           74     130/ 12/ 13 1018.7S
VENICE                     76 80  110/  7/  9 1017.9F

$$
FLZ066-069-070-075>078-162-262-165-265-291000-
SOUTHWEST FLORIDA AND KEYS

CITY           SKY/WX    TMP DP  RH WIND       PRES   REMARKS
PUNTA GORDA    PTCLDY    73  72  96 E8        30.09S
FT MYERS       CLEAR     74  73  97 E8        30.07R
SOUTHWEST INTL PTCLDY    73  71  93 E8        30.07S
NAPLES         CLEAR     76  73  91 E10       30.06R
MARCO ISLAND   PTCLDY    73  70  88 E7        30.07R
IMMOKALEE      FAIR      72  72 100 E5        30.07S FOG
MARATHON       PTCLDY    80  76  87 E10G18    30.03S
KEY WEST NAS   PTCLDY   N/A N/A N/A E18       30.02S
KEY WEST INTL  CLEAR     79  75  87 E18G25    30.03R

STATION/POSITION SKY/WX   TEMP    WIND        PRES    WAVE   SWELL
                          AIR SEA DIR/SP/G            HT/PER HT/PER
                          (F)     (DEG/KT/KT) (MB)    (FT/S) (FT/S)
NAPLES                        80  100/  7/ 12 1017.8S
26.0N   85.6W              79     130/ 17/ 23 1014.6S   8/ 8
DRY TORTUGAS               80     120/ 20/ 22 1016.1R
SAND KEY                   79     140/ 18/ 21 1017.0R
LONG KEY                   80 81  120/ 16/ 19 1017.6R
MOLASSES REEF              79 79  130/ 20/ 21 1018.1R

$$
FLZ067-068-071>074-168-172>174-291000-
SOUTHEAST FLORIDA

CITY           SKY/WX    TMP DP  RH WIND       PRES   REMARKS
W PALM BEACH   PTCLDY    77  70  79 SE14      30.11S
FT LAUDER-EXEC PTCLDY    80  69  69 E13       30.08F
FT LAUDERDALE  MOCLDY    79  72  79 SE13      30.08S
POMPANO BEACH  PTCLDY    79  71  76 SE15      30.09S
PEMBROKE PINES PTCLDY    79  70  74 SE14      30.09F
OPA LOCKA      CLEAR     77  70  79 SE16      30.08F
MIAMI          PTCLDY    79  70  74 E16       30.08S
WEST KENDALL   MOCLDY    79  70  74 SE10      30.07S
HOMESTEAD      CLEAR     78  73  84 E14       30.06S

STATION/POSITION SKY/WX   TEMP    WIND        PRES    WAVE   SWELL
                          AIR SEA DIR/SP/G            HT/PER HT/PER
                          (F)     (DEG/KT/KT) (MB)    (FT/S) (FT/S)
PORT EVERGLADES            79     110/  6/ 11 1018.6F
VIRGINIA KEY               79 81   90/ 13/ 16 1017.7S
LAKE WORTH                 78 79  130/ 16/ 18 1020.1R
FOWEY ROCKS                79 78  110/ 21/ 23 1018.7R
SETTLEMENT POINT           76     130/  8/  9 1019.9R

$$





USA.gov is the U.S. government's official web portal to all federal, state and local government web resources and services.